����,���ϕ���(m/s),���ϕ���,�ő�u�ԕ���(m/s),�ő啗��������,�C��(��),���x(%),10���Ԉړ��ώZ�J��(mm),1���Ԉړ��ώZ�J��(mm),���J��(mm),�݌v�J��(mm),����(���ώZ)(MJ/m2),����(���ώZ)(min),���n�C��(hPa),�C�ʋC��(hPa)
2020-11-02T00:00:00+09:00,0.3,��,1.5,�쐼,14.2,88.6,0,0,0,0,7.93,229,1007.4,1021.4
2020-11-02T00:01:00+09:00,0.4,��,1.5,�쐼,14,88.1,0,0,0,0,0,0,1007.4,1021.4
2020-11-02T00:02:00+09:00,0.5,��쐼,1.5,�쐼,13.9,88.2,0,0,0,0,0,0,1007.4,1021.4
2020-11-02T00:03:00+09:00,0.6,��쐼,1.8,��,13.9,88.4,0,0,0,0,0,0,1007.4,1021.4
2020-11-02T00:04:00+09:00,0.8,�쐼,2.1,���쐼,14,88.8,0,0,0,0,0,0,1007.4,1021.4
2020-11-02T00:05:00+09:00,0.9,�쐼,2.3,��,14.2,89.4,0,0,0,0,0,0,1007.5,1021.5
2020-11-02T00:06:00+09:00,1.1,�쐼,2.3,��,14,88.7,0,0,0,0,0,0,1007.5,1021.5
2020-11-02T00:07:00+09:00,1.2,���쐼,2.6,��,13.9,88.2,0,0,0,0,0,0,1007.5,1021.5
2020-11-02T00:08:00+09:00,1.4,���쐼,2.6,��,13.9,88.2,0,0,0,0,0,0,1007.4,1021.4
2020-11-02T00:09:00+09:00,1.6,���쐼,2.6,��,13.9,88.5,0,0,0,0,0,0,1007.4,1021.4
2020-11-02T00:10:00+09:00,1.6,���쐼,2.6,��,13.9,88.6,0,0,0,0,0,0,1007.4,1021.4
2020-11-02T00:11:00+09:00,1.6,���쐼,2.6,��,13.9,88.8,0,0,0,0,0,0,1007.4,1021.4
2020-11-02T00:12:00+09:00,1.6,���쐼,2.6,��,14,89.1,0,0,0,0,0,0,1007.5,1021.5
2020-11-02T00:13:00+09:00,1.5,���쐼,2.6,��,14.1,89.1,0,0,0,0,0,0,1007.5,1021.5
2020-11-02T00:14:00+09:00,1.5,���쐼,2.6,��,14.2,89.3,0,0,0,0,0,0,1007.5,1021.5
2020-11-02T00:15:00+09:00,1.3,���쐼,2.6,��,14.2,89.1,0,0,0,0,0,0,1007.5,1021.5
2020-11-02T00:16:00+09:00,1.2,���쐼,2.6,��,14.3,88.3,0,0,0,0,0,0,1007.5,1021.5
2020-11-02T00:17:00+09:00,1,���쐼,2.6,��,14.2,88.2,0,0,0,0,0,0,1007.5,1021.5
2020-11-02T00:18:00+09:00,0.8,�쐼,2.3,���쐼,14.3,88.1,0,0,0,0,0,0,1007.5,1021.5
2020-11-02T00:19:00+09:00,0.6,�쐼,2.3,���쐼,14.3,88,0,0,0,0,0,0,1007.5,1021.5
2020-11-02T00:20:00+09:00,0.5,��쐼,1.7,���쐼,14.2,87.8,0,0,0,0,0,0,1007.5,1021.5
2020-11-02T00:21:00+09:00,0.4,��쐼,1.2,���쐼,14.2,87.8,0,0,0,0,0,0,1007.5,1021.5
2020-11-02T00:22:00+09:00,0.3,��쐼,1.1,��,14.3,88,0,0,0,0,0,0,1007.5,1021.5
2020-11-02T00:23:00+09:00,0.2,�É�,1.1,��,14.2,87.9,0,0,0,0,0,0,1007.5,1021.5
2020-11-02T00:24:00+09:00,0.2,�É�,0.7,��쐼,14.1,87.6,0,0,0,0,0,0,1007.5,1021.5
2020-11-02T00:25:00+09:00,0.2,�É�,0.7,��쐼,14,87.9,0,0,0,0,0,0,1007.5,1021.5
2020-11-02T00:26:00+09:00,0.2,�É�,0.7,��쐼,14.1,88.5,0,0,0,0,0,0,1007.5,1021.5
2020-11-02T00:27:00+09:00,0.2,�É�,0.7,��쐼,14.2,88.7,0,0,0,0,0,0,1007.4,1021.4
2020-11-02T00:28:00+09:00,0.1,�É�,0.7,��쐼,14.2,88.6,0,0,0,0,0,0,1007.4,1021.4
2020-11-02T00:29:00+09:00,0.2,�É�,0.8,��,14.1,88.1,0,0,0,0,0,0,1007.4,1021.4
2020-11-02T00:30:00+09:00,0.2,�É�,1,��,14.1,88,0,0,0,0,0,0,1007.3,1021.3
2020-11-02T00:31:00+09:00,0.2,�É�,1.1,��쐼,14.1,88.2,0,0,0,0,0,0,1007.3,1021.3
2020-11-02T00:32:00+09:00,0.3,�쐼,1.2,��,14.2,88.3,0,0,0,0,0,0,1007.3,1021.3
2020-11-02T00:33:00+09:00,0.5,��쐼,1.7,��쐼,14.2,88.3,0,0,0,0,0,0,1007.3,1021.3
2020-11-02T00:34:00+09:00,0.6,��쐼,1.7,��쐼,14.2,88.3,0,0,0,0,0,0,1007.3,1021.3
2020-11-02T00:35:00+09:00,0.7,��쐼,1.7,��쐼,14.2,88.1,0,0,0,0,0,0,1007.4,1021.4
2020-11-02T00:36:00+09:00,0.8,��쐼,1.9,�쐼,14.2,88.2,0,0,0,0,0,0,1007.4,1021.4
2020-11-02T00:37:00+09:00,1,��쐼,1.9,�쐼,14.2,88.3,0,0,0,0,0,0,1007.4,1021.4
2020-11-02T00:38:00+09:00,1.1,��쐼,1.9,�쐼,14.2,88.2,0,0,0,0,0,0,1007.3,1021.3
2020-11-02T00:39:00+09:00,1.1,��쐼,1.9,�쐼,14.2,88.2,0,0,0,0,0,0,1007.3,1021.3
2020-11-02T00:40:00+09:00,1.2,��쐼,1.9,�쐼,14.2,88.3,0,0,0,0,0,0,1007.3,1021.3
2020-11-02T00:41:00+09:00,1.3,��쐼,1.9,�쐼,14.1,88.2,0,0,0,0,0,0,1007.3,1021.3
2020-11-02T00:42:00+09:00,1.3,��쐼,1.9,�쐼,14.2,88.4,0,0,0,0,0,0,1007.4,1021.4
2020-11-02T00:43:00+09:00,1.3,��쐼,1.9,�쐼,14.2,88.5,0,0,0,0,0,0,1007.4,1021.4
2020-11-02T00:44:00+09:00,1.3,��쐼,1.9,�쐼,14.2,88.5,0,0,0,0,0,0,1007.4,1021.4
2020-11-02T00:45:00+09:00,1.2,��쐼,1.9,�쐼,14.3,88.7,0,0,0,0,0,0,1007.4,1021.4
2020-11-02T00:46:00+09:00,1.2,��쐼,1.8,��쐼,14.2,88.5,0,0,0,0,0,0,1007.4,1021.4
2020-11-02T00:47:00+09:00,1.2,��쐼,1.8,�쐼,14.2,88.5,0,0,0,0,0,0,1007.5,1021.5
2020-11-02T00:48:00+09:00,1.2,��쐼,2,��쐼,14.3,88.6,0,0,0,0,0,0,1007.5,1021.5
2020-11-02T00:49:00+09:00,1.3,��쐼,2,��쐼,14.2,88.4,0,0,0,0,0,0,1007.5,1021.5
2020-11-02T00:50:00+09:00,1.3,��쐼,2,��쐼,14.2,88.4,0,0,0,0,0,0,1007.5,1021.5
2020-11-02T00:51:00+09:00,1.2,��쐼,2,��쐼,14.2,88.5,0,0,0,0,0,0,1007.5,1021.5
2020-11-02T00:52:00+09:00,1.2,�쐼,2,��쐼,14.2,88.4,0,0,0,0,0,0,1007.5,1021.5
2020-11-02T00:53:00+09:00,1.2,�쐼,2.4,��,14.1,88.5,0,0,0,0,0,0,1007.5,1021.5
2020-11-02T00:54:00+09:00,1.3,�쐼,2.8,��,14.1,88.5,0,0,0,0,0,0,1007.5,1021.5
2020-11-02T00:55:00+09:00,1.5,�쐼,2.8,��,14.1,88.5,0,0,0,0,0,0,1007.5,1021.5
2020-11-02T00:56:00+09:00,1.4,�쐼,2.8,��,14.2,88.5,0,0,0,0,0,0,1007.5,1021.5
2020-11-02T00:57:00+09:00,1.3,�쐼,2.8,��,14.4,88.3,0,0,0,0,0,0,1007.4,1021.4
2020-11-02T00:58:00+09:00,1.2,�쐼,2.8,��,14.4,88,0,0,0,0,0,0,1007.4,1021.4
2020-11-02T00:59:00+09:00,1.1,���쐼,2.8,��,14.5,87.6,0,0,0,0,0,0,1007.5,1021.4
2020-11-02T01:00:00+09:00,1,���쐼,2.8,��,14.3,86.9,0,0,0,0,0,0,1007.5,1021.5
2020-11-02T01:01:00+09:00,1,���쐼,2.8,��,14.2,86.9,0,0,0,0,0,0,1007.5,1021.5
2020-11-02T01:02:00+09:00,0.9,���쐼,2.8,��,14.1,87.4,0,0,0,0,0,0,1007.5,1021.5
2020-11-02T01:03:00+09:00,0.8,���쐼,2.8,��,14.1,87.9,0,0,0,0,0,0,1007.5,1021.5
2020-11-02T01:04:00+09:00,0.7,�쐼,2.7,��,14.1,88.2,0,0,0,0,0,0,1007.5,1021.5
2020-11-02T01:05:00+09:00,0.5,�쐼,1.8,��,14.1,88.7,0,0,0,0,0,0,1007.5,1021.5
2020-11-02T01:06:00+09:00,0.6,�쐼,3,���쐼,14.2,89.1,0,0,0,0,0,0,1007.5,1021.5
2020-11-02T01:07:00+09:00,0.8,�쐼,3,���쐼,14.3,88.9,0,0,0,0,0,0,1007.5,1021.5
2020-11-02T01:08:00+09:00,0.9,�쐼,3,���쐼,14.3,88.3,0,0,0,0,0,0,1007.5,1021.5
2020-11-02T01:09:00+09:00,1.1,�쐼,4.4,�쐼,14.3,88.3,0,0,0,0,0,0,1007.5,1021.5
2020-11-02T01:10:00+09:00,1.4,�쐼,4.4,�쐼,14.4,88.3,0,0,0,0,0,0,1007.5,1021.5
2020-11-02T01:11:00+09:00,1.7,�쐼,4.4,�쐼,14.5,88,0,0,0,0,0,0,1007.5,1021.4
2020-11-02T01:12:00+09:00,2,�쐼,4.4,�쐼,14.4,87.4,0,0,0,0,0,0,1007.5,1021.5
2020-11-02T01:13:00+09:00,2.1,�쐼,4.4,�쐼,14.3,87.4,0,0,0,0,0,0,1007.5,1021.5
2020-11-02T01:14:00+09:00,2.1,�쐼,4.4,�쐼,14.3,87.9,0,0,0,0,0,0,1007.5,1021.5
2020-11-02T01:15:00+09:00,2.3,�쐼,4.4,�쐼,14.3,88.3,0,0,0,0,0,0,1007.5,1021.5
2020-11-02T01:16:00+09:00,2.3,�쐼,4.4,�쐼,14.4,89.3,0,0,0,0,0,0,1007.4,1021.4
2020-11-02T01:17:00+09:00,2.3,���쐼,4.5,��,14.3,88.8,0,0,0,0,0,0,1007.4,1021.4
2020-11-02T01:18:00+09:00,2.4,���쐼,4.5,��,14.2,88.9,0,0,0,0,0,0,1007.4,1021.4
2020-11-02T01:19:00+09:00,2.3,���쐼,4.5,��,14.1,89.4,0,0,0,0,0,0,1007.4,1021.4
2020-11-02T01:20:00+09:00,2.1,���쐼,4.5,��,14.1,90,0,0,0,0,0,0,1007.5,1021.5
2020-11-02T01:21:00+09:00,2,���쐼,4.5,��,14.2,90.9,0,0,0,0,0,0,1007.5,1021.5
2020-11-02T01:22:00+09:00,1.9,���쐼,4.5,��,14.3,91.8,0,0,0,0,0,0,1007.5,1021.5
2020-11-02T01:23:00+09:00,1.9,���쐼,4.5,��,14.2,91.3,0,0,0,0,0,0,1007.6,1021.6
2020-11-02T01:24:00+09:00,1.9,�쐼,4.5,��,14.2,91.3,0,0,0,0,0,0,1007.6,1021.6
2020-11-02T01:25:00+09:00,1.9,�쐼,4.5,��,14.1,91.3,0,0,0,0,0,0,1007.6,1021.6
2020-11-02T01:26:00+09:00,1.9,�쐼,4.5,��,14.1,91.6,0,0,0,0,0,0,1007.6,1021.6
2020-11-02T01:27:00+09:00,1.9,�쐼,3.6,���k��,14.2,92.1,0,0,0,0,0,0,1007.7,1021.7
2020-11-02T01:28:00+09:00,1.8,�쐼,3.4,���쐼,14.2,92.5,0,0,0,0,0,0,1007.7,1021.7
2020-11-02T01:29:00+09:00,1.8,�쐼,3.4,���쐼,14.2,92.6,0,0,0,0,0,0,1007.6,1021.6
2020-11-02T01:30:00+09:00,1.8,�쐼,3.4,���쐼,14.4,93.5,0,0,0,0,0,0,1007.6,1021.6
2020-11-02T01:31:00+09:00,1.7,�쐼,3.4,���쐼,14.5,93.5,0,0,0,0,0,0,1007.5,1021.4
2020-11-02T01:32:00+09:00,1.6,���쐼,3.4,���쐼,14.4,93.4,0,0,0,0,0,0,1007.5,1021.5
2020-11-02T01:33:00+09:00,1.4,���쐼,3.4,���쐼,14.4,92.8,0,0,0,0,0,0,1007.5,1021.5
2020-11-02T01:34:00+09:00,1.2,���쐼,3.4,���쐼,14.2,92.6,0,0,0,0,0,0,1007.5,1021.5
2020-11-02T01:35:00+09:00,1,���쐼,3.4,���쐼,14.2,92.2,0,0,0,0,0,0,1007.4,1021.4
2020-11-02T01:36:00+09:00,0.9,���쐼,3.4,���쐼,14.1,92.1,0,0,0,0,0,0,1007.4,1021.4
2020-11-02T01:37:00+09:00,0.7,�쐼,2.9,��,14,92.2,0,0,0,0,0,0,1007.4,1021.4
2020-11-02T01:38:00+09:00,0.6,�쐼,2.9,��,14.1,92.7,0,0,0,0,0,0,1007.3,1021.3
2020-11-02T01:39:00+09:00,0.5,��쐼,2.9,��,14.1,93.3,0,0,0,0,0,0,1007.4,1021.4
2020-11-02T01:40:00+09:00,0.3,��쓌,1.5,���k��,14.1,93.5,0,0,0,0,0,0,1007.4,1021.4
2020-11-02T01:41:00+09:00,0.3,��쓌,1.4,��,14,93.4,0,0,0,0,0,0,1007.4,1021.4
2020-11-02T01:42:00+09:00,0.3,��쓌,1.4,��,14,93.6,0,0,0,0,0,0,1007.3,1021.3
2020-11-02T01:43:00+09:00,0.4,��쓌,1.4,��,14,93.7,0,0,0,0,0,0,1007.4,1021.4
2020-11-02T01:44:00+09:00,0.4,��쓌,1.4,��,14,94.1,0,0,0,0,0,0,1007.4,1021.4
2020-11-02T01:45:00+09:00,0.5,��쓌,1.4,��,13.9,94,0,0,0,0,0,0,1007.3,1021.3
2020-11-02T01:46:00+09:00,0.5,��쓌,1.4,��,14,94.1,0,0,0,0,0,0,1007.3,1021.3
2020-11-02T01:47:00+09:00,0.6,��,1.4,��,14.3,94.6,0,0,0,0,0,0,1007.3,1021.3
2020-11-02T01:48:00+09:00,0.5,��,1.1,��,14.5,94.5,0,0,0,0,0,0,1007.3,1021.2
2020-11-02T01:49:00+09:00,0.5,��,1.1,��,14.3,93.6,0,0,0,0,0,0,1007.2,1021.2
2020-11-02T01:50:00+09:00,0.5,��,1.1,��,14.1,92.4,0,0,0,0,0,0,1007.2,1021.2
2020-11-02T01:51:00+09:00,0.5,��,1.1,��,14,92.2,0,0,0,0,0,0,1007.2,1021.2
2020-11-02T01:52:00+09:00,0.5,��,1.1,��,13.9,92.5,0,0,0,0,0,0,1007.1,1021.1
2020-11-02T01:53:00+09:00,0.4,��,1.1,��,13.9,93.1,0,0,0,0,0,0,1007.1,1021.1
2020-11-02T01:54:00+09:00,0.3,��,1.1,��,13.9,93.8,0,0,0,0,0,0,1007.1,1021.1
2020-11-02T01:55:00+09:00,0.3,��쓌,1.1,��,13.9,94.3,0,0,0,0,0,0,1007.1,1021.1
2020-11-02T01:56:00+09:00,0.2,�É�,1.1,��,13.9,94.7,0,0,0,0,0,0,1007.1,1021.1
2020-11-02T01:57:00+09:00,0.1,�É�,0.7,�쐼,13.9,95.1,0,0,0,0,0,0,1007.1,1021.1
2020-11-02T01:58:00+09:00,0.1,�É�,0.7,�쐼,14,95.3,0,0,0,0,0,0,1007.1,1021.1
2020-11-02T01:59:00+09:00,0,�É�,0.7,�쐼,14,95.6,0,0,0,0,0,0,1007.1,1021.1
2020-11-02T02:00:00+09:00,0,�É�,0.7,�쐼,14,95.7,0,0,0,0,0,0,1007.1,1021.1
2020-11-02T02:01:00+09:00,0,�É�,0.4,��쐼,14,95.8,0,0,0,0,0,0,1007.1,1021.1
2020-11-02T02:02:00+09:00,0,�É�,0.4,��쐼,13.9,95.6,0,0,0,0,0,0,1007.1,1021.1
2020-11-02T02:03:00+09:00,0,�É�,0.6,�k��,13.9,95.9,0,0,0,0,0,0,1007.1,1021.1
2020-11-02T02:04:00+09:00,0.1,�É�,0.9,��,14,96,0,0,0,0,0,0,1007.1,1021.1
2020-11-02T02:05:00+09:00,0.2,�É�,1.3,��,13.9,95.9,0,0,0,0,0,0,1007.1,1021.1
2020-11-02T02:06:00+09:00,0.3,�k��,1.3,��,14,96,0,0,0,0,0,0,1007.1,1021.1
2020-11-02T02:07:00+09:00,0.4,���k��,1.3,��,14,96.2,0,0,0,0,0,0,1007.1,1021.1
2020-11-02T02:08:00+09:00,0.5,���k��,1.3,��,14,96.2,0,0,0,0,0,0,1007,1021
2020-11-02T02:09:00+09:00,0.6,���k��,1.3,��,14.1,96.4,0,0,0,0,0,0,1007.1,1021.1
2020-11-02T02:10:00+09:00,0.6,���k��,1.3,��,14,96.3,0,0,0,0,0,0,1007,1021
2020-11-02T02:11:00+09:00,0.7,���k��,1.3,��,14,96.3,0,0,0,0,0,0,1007,1021
2020-11-02T02:12:00+09:00,0.8,���k��,1.3,��,13.9,96.2,0,0,0,0,0,0,1007,1021
2020-11-02T02:13:00+09:00,0.8,��,1.3,��,13.9,96.2,0,0,0,0,0,0,1007,1021
2020-11-02T02:14:00+09:00,0.8,��,1.3,��,13.9,96.3,0,0,0,0,0,0,1007,1021
2020-11-02T02:15:00+09:00,0.7,���k��,1.3,��,13.7,96.2,0,0,0,0,0,0,1006.9,1020.9
2020-11-02T02:16:00+09:00,0.6,���k��,1.1,��,13.7,96.1,0,0,0,0,0,0,1006.9,1020.9
2020-11-02T02:17:00+09:00,0.5,���k��,1.1,��,13.8,96.3,0,0,0,0,0,0,1006.9,1020.9
2020-11-02T02:18:00+09:00,0.4,��,1.1,��,13.7,96.4,0,0,0,0,0,0,1006.9,1020.9
2020-11-02T02:19:00+09:00,0.3,��,1.1,��,13.7,96.4,0,0,0,0,0,0,1006.9,1020.9
2020-11-02T02:20:00+09:00,0.2,�É�,1.1,��,13.7,96.4,0,0,0,0,0,0,1006.9,1020.9
2020-11-02T02:21:00+09:00,0.1,�É�,1.1,��,13.7,96.5,0,0,0,0,0,0,1006.8,1020.8
2020-11-02T02:22:00+09:00,0.1,�É�,0.6,���k��,13.7,96.6,0,0,0,0,0,0,1006.8,1020.8
2020-11-02T02:23:00+09:00,0,�É�,0.2,�쐼,13.8,96.7,0,0,0,0,0,0,1006.8,1020.8
2020-11-02T02:24:00+09:00,0,�É�,0.2,�쐼,13.9,96.8,0,0,0,0,0,0,1006.8,1020.8
2020-11-02T02:25:00+09:00,0,�É�,0.6,���k��,13.9,97,0,0,0,0,0,0,1006.9,1020.9
2020-11-02T02:26:00+09:00,0.1,�É�,0.6,���k��,13.9,97,0,0,0,0,0,0,1006.8,1020.8
2020-11-02T02:27:00+09:00,0.1,�É�,0.6,���k��,13.9,96.9,0,0,0,0,0,0,1006.8,1020.8
2020-11-02T02:28:00+09:00,0.1,�É�,0.6,���k��,13.9,96.9,0,0,0,0,0,0,1006.8,1020.8
2020-11-02T02:29:00+09:00,0.1,�É�,0.6,���k��,13.9,96.9,0,0,0,0,0,0,1006.8,1020.8
2020-11-02T02:30:00+09:00,0.1,�É�,0.6,���k��,13.7,96.8,0,0,0,0,0,0,1006.8,1020.8
2020-11-02T02:31:00+09:00,0.1,�É�,0.8,��,13.7,96.8,0,0,0,0,0,0,1006.8,1020.8
2020-11-02T02:32:00+09:00,0.1,�É�,0.8,��,13.7,96.9,0,0,0,0,0,0,1006.8,1020.8
2020-11-02T02:33:00+09:00,0.1,�É�,0.8,��,13.8,97,0,0,0,0,0,0,1006.8,1020.8
2020-11-02T02:34:00+09:00,0.1,�É�,0.8,��,13.9,97.2,0,0,0,0,0,0,1006.8,1020.8
2020-11-02T02:35:00+09:00,0.1,�É�,0.9,�쐼,13.9,97.2,0,0,0,0,0,0,1006.9,1020.9
2020-11-02T02:36:00+09:00,0.2,�É�,1.1,��쐼,13.8,97.2,0,0,0,0,0,0,1006.9,1020.9
2020-11-02T02:37:00+09:00,0.2,�É�,1.1,��쐼,13.7,96.9,0,0,0,0,0,0,1006.9,1020.9
2020-11-02T02:38:00+09:00,0.3,�쐼,1.1,��쐼,13.6,96.8,0,0,0,0,0,0,1006.8,1020.8
2020-11-02T02:39:00+09:00,0.4,�쐼,1.1,��쐼,13.7,96.9,0,0,0,0,0,0,1006.8,1020.8
2020-11-02T02:40:00+09:00,0.5,�쐼,1.1,��쐼,13.7,97.1,0,0,0,0,0,0,1006.8,1020.8
2020-11-02T02:41:00+09:00,0.5,��쐼,1.1,��쐼,13.7,97.2,0,0,0,0,0,0,1006.8,1020.8
2020-11-02T02:42:00+09:00,0.6,��쐼,1.9,��,13.6,97,0,0,0,0,0,0,1006.8,1020.8
2020-11-02T02:43:00+09:00,0.8,��쐼,1.9,��,13.6,97,0,0,0,0,0,0,1006.8,1020.8
2020-11-02T02:44:00+09:00,0.8,��쐼,1.9,��,13.7,97.2,0,0,0,0,0,0,1006.8,1020.8
2020-11-02T02:45:00+09:00,0.9,��쐼,1.9,��,13.6,97.1,0,0,0,0,0,0,1006.7,1020.7
2020-11-02T02:46:00+09:00,1,��쐼,1.9,��,13.6,97,0,0,0,0,0,0,1006.7,1020.7
2020-11-02T02:47:00+09:00,1.1,��쐼,2.1,��쐼,13.5,97,0,0,0,0,0,0,1006.7,1020.7
2020-11-02T02:48:00+09:00,1.2,��쐼,2.4,��쐼,13.5,97,0,0,0,0,0,0,1006.7,1020.7
2020-11-02T02:49:00+09:00,1.3,��쐼,2.5,��,13.5,97.1,0,0,0,0,0,0,1006.7,1020.7
2020-11-02T02:50:00+09:00,1.4,��쐼,2.5,��,13.5,97.1,0,0,0,0,0,0,1006.6,1020.6
2020-11-02T02:51:00+09:00,1.4,��쐼,2.5,��,13.5,97.1,0,0,0,0,0,0,1006.6,1020.6
2020-11-02T02:52:00+09:00,1.5,��쐼,2.5,��,13.5,97.2,0,0,0,0,0,0,1006.6,1020.6
2020-11-02T02:53:00+09:00,1.5,��쐼,2.5,��,13.5,97.3,0,0,0,0,0,0,1006.6,1020.6
2020-11-02T02:54:00+09:00,1.6,��쐼,2.5,��,13.6,97.2,0,0,0,0,0,0,1006.6,1020.6
2020-11-02T02:55:00+09:00,1.7,��쐼,2.9,��쐼,13.5,97.3,0,0,0,0,0,0,1006.6,1020.6
2020-11-02T02:56:00+09:00,1.8,��쐼,2.9,��쐼,13.5,97.2,0,0,0,0,0,0,1006.5,1020.5
2020-11-02T02:57:00+09:00,1.7,��쐼,2.9,��쐼,13.5,97.2,0,0,0,0,0,0,1006.5,1020.5
2020-11-02T02:58:00+09:00,1.7,��,2.9,��쐼,13.5,97.2,0,0,0,0,0,0,1006.5,1020.5
2020-11-02T02:59:00+09:00,1.6,��,2.9,��쐼,13.5,97.2,0,0,0,0,0,0,1006.5,1020.5
2020-11-02T03:00:00+09:00,1.4,��쐼,2.9,��쐼,13.5,97.3,0,0,0,0,0,0,1006.5,1020.5
2020-11-02T03:01:00+09:00,1.4,��,2.9,��쐼,13.5,97.3,0,0,0,0,0,0,1006.5,1020.5
2020-11-02T03:02:00+09:00,1.3,��,2.9,��쐼,13.5,97.3,0,0,0,0,0,0,1006.4,1020.4
2020-11-02T03:03:00+09:00,1.2,��,2.9,��쐼,13.5,97.3,0,0,0,0,0,0,1006.4,1020.4
2020-11-02T03:04:00+09:00,1.1,��,2.9,��쐼,13.5,97.4,0,0,0,0,0,0,1006.4,1020.4
2020-11-02T03:05:00+09:00,1,��,2.9,��,13.5,97.4,0,0,0,0,0,0,1006.4,1020.4
2020-11-02T03:06:00+09:00,0.9,��,2.8,��,13.5,97.4,0,0,0,0,0,0,1006.3,1020.3
2020-11-02T03:07:00+09:00,1,��,3.1,��,13.5,97.4,0,0,0,0,0,0,1006.3,1020.3
2020-11-02T03:08:00+09:00,1.2,��,3.1,��,13.5,97.4,0,0,0,0,0,0,1006.3,1020.3
2020-11-02T03:09:00+09:00,1.3,��,3.1,��,13.5,97.4,0,0,0,0,0,0,1006.4,1020.4
2020-11-02T03:10:00+09:00,1.5,��,3.3,��,13.6,97.5,0,0,0,0,0,0,1006.4,1020.4
2020-11-02T03:11:00+09:00,1.7,��,3.3,��,13.5,97.5,0,0,0,0,0,0,1006.5,1020.5
2020-11-02T03:12:00+09:00,1.9,��쐼,3.3,��,13.5,97.5,0,0,0,0,0,0,1006.5,1020.5
2020-11-02T03:13:00+09:00,2,��쐼,3.3,��,13.6,97.5,0,0,0,0,0,0,1006.5,1020.5
2020-11-02T03:14:00+09:00,2.2,��쐼,3.3,��,13.5,97.5,0,0,0,0,0,0,1006.4,1020.4
2020-11-02T03:15:00+09:00,2.3,��쐼,3.3,��,13.5,97.5,0,0,0,0,0,0,1006.4,1020.4
2020-11-02T03:16:00+09:00,2.5,��쐼,3.6,��쐼,13.5,97.5,0,0,0,0,0,0,1006.4,1020.4
2020-11-02T03:17:00+09:00,2.5,��쐼,3.6,��쐼,13.5,97.5,0,0,0,0,0,0,1006.4,1020.4
2020-11-02T03:18:00+09:00,2.5,��쐼,3.6,��쐼,13.5,97.5,0,0,0,0,0,0,1006.4,1020.4
2020-11-02T03:19:00+09:00,2.5,��쐼,3.6,��쐼,13.5,97.5,0,0,0,0,0,0,1006.4,1020.4
2020-11-02T03:20:00+09:00,2.4,��쐼,3.6,��쐼,13.5,97.6,0,0,0,0,0,0,1006.4,1020.4
2020-11-02T03:21:00+09:00,2.2,��쐼,3.6,��쐼,13.6,97.6,0,0,0,0,0,0,1006.4,1020.4
2020-11-02T03:22:00+09:00,2.1,��쐼,3.6,��쐼,13.6,97.6,0,0,0,0,0,0,1006.4,1020.4
2020-11-02T03:23:00+09:00,2.1,��쐼,3.6,��쐼,13.6,97.6,0,0,0,0,0,0,1006.4,1020.4
2020-11-02T03:24:00+09:00,2,��쐼,3.6,��쐼,13.6,97.6,0,0,0,0,0,0,1006.3,1020.3
2020-11-02T03:25:00+09:00,1.9,��쐼,3.6,��쐼,13.6,97.6,0,0,0,0,0,0,1006.3,1020.3
2020-11-02T03:26:00+09:00,1.8,��쐼,3.5,��쐼,13.5,97.6,0,0,0,0,0,0,1006.3,1020.3
2020-11-02T03:27:00+09:00,1.8,��쐼,3.5,��쐼,13.5,97.6,0,0,0,0,0,0,1006.3,1020.3
2020-11-02T03:28:00+09:00,1.6,��쐼,2.9,��쐼,13.5,97.6,0,0,0,0,0,0,1006.2,1020.2
2020-11-02T03:29:00+09:00,1.6,��쐼,2.3,��쐼,13.5,97.5,0,0,0,0,0,0,1006.1,1020.1
2020-11-02T03:30:00+09:00,1.5,��쐼,2.3,��쐼,13.5,97.5,0,0,0,0,0,0,1006.1,1020.1
2020-11-02T03:31:00+09:00,1.5,��,2.3,��쐼,13.5,97.6,0,0,0,0,0,0,1006,1020
2020-11-02T03:32:00+09:00,1.4,��,2.3,��쐼,13.5,97.6,0,0,0,0,0,0,1006,1020
2020-11-02T03:33:00+09:00,1.3,��,2.3,��쐼,13.5,97.6,0,0,0,0,0,0,1006,1020
2020-11-02T03:34:00+09:00,1.3,��,2.3,��쐼,13.6,97.7,0,0,0,0,0,0,1006,1020
2020-11-02T03:35:00+09:00,1.2,��,2.3,��쐼,13.6,97.7,0,0,0,0,0,0,1006,1020
2020-11-02T03:36:00+09:00,1.2,��,2.3,��쐼,13.6,97.7,0,0,0,0,0,0,1006,1020
2020-11-02T03:37:00+09:00,1.1,��,2.3,��쐼,13.6,97.7,0,0,0,0,0,0,1006,1020
2020-11-02T03:38:00+09:00,1,��,2.3,��쐼,13.6,97.7,0,0,0,0,0,0,1006,1020
2020-11-02T03:39:00+09:00,1,��,2.1,��,13.6,97.7,0,0,0,0,0,0,1005.9,1019.9
2020-11-02T03:40:00+09:00,1,��,2.1,��,13.6,97.7,0,0,0,0,0,0,1005.9,1019.9
2020-11-02T03:41:00+09:00,1,��쐼,2.1,��,13.6,97.7,0,0,0,0,0,0,1005.9,1019.9
2020-11-02T03:42:00+09:00,1.1,��쐼,2.1,��,13.7,97.7,0,0,0,0,0,0,1005.9,1019.9
2020-11-02T03:43:00+09:00,1.1,��쐼,2.1,��,13.6,97.7,0,0,0,0,0,0,1005.9,1019.9
2020-11-02T03:44:00+09:00,1.1,��쐼,2.1,��,13.6,97.7,0,0,0,0,0,0,1005.9,1019.9
2020-11-02T03:45:00+09:00,1.2,��쐼,2.1,��,13.6,97.6,0,0,0,0,0,0,1005.8,1019.8
2020-11-02T03:46:00+09:00,1.2,��쐼,2.1,��,13.6,97.6,0,0,0,0,0,0,1005.8,1019.8
2020-11-02T03:47:00+09:00,1.3,��쐼,2.2,��,13.6,97.6,0,0,0,0,0,0,1005.8,1019.8
2020-11-02T03:48:00+09:00,1.4,��쐼,2.2,��,13.6,97.6,0,0,0,0,0,0,1005.8,1019.8
2020-11-02T03:49:00+09:00,1.4,��쐼,2.2,��,13.5,97.5,0,0,0,0,0,0,1005.8,1019.8
2020-11-02T03:50:00+09:00,1.3,��쐼,2.2,��,13.6,97.6,0,0,0,0,0,0,1005.9,1019.9
2020-11-02T03:51:00+09:00,1.2,��쐼,2.2,��,13.8,97.8,0,0,0,0,0,0,1005.9,1019.9
2020-11-02T03:52:00+09:00,1.1,��쐼,2.2,��,13.6,97.7,0,0,0,0,0,0,1005.9,1019.9
2020-11-02T03:53:00+09:00,1.1,��쐼,2.2,��,13.5,97.6,0,0,0,0,0,0,1006,1020
2020-11-02T03:54:00+09:00,1,��쐼,2.2,��,13.6,97.5,0,0,0,0,0,0,1005.9,1019.9
2020-11-02T03:55:00+09:00,0.9,��쐼,2.2,��,13.6,97.6,0,0,0,0,0,0,1005.9,1019.9
2020-11-02T03:56:00+09:00,0.8,��쐼,2.2,��,13.5,97.5,0,0,0,0,0,0,1005.9,1019.9
2020-11-02T03:57:00+09:00,0.7,��쐼,1.9,��쐼,13.5,97.5,0,0,0,0,0,0,1005.9,1019.9
2020-11-02T03:58:00+09:00,0.7,��쐼,1.7,��,13.4,97.5,0,0,0,0,0,0,1005.9,1019.9
2020-11-02T03:59:00+09:00,0.6,��쐼,1.4,��,13.5,97.6,0,0,0,0,0,0,1005.9,1019.9
2020-11-02T04:00:00+09:00,0.6,��쐼,1.4,��,13.4,97.6,0,0,0,0,0,0,1005.9,1019.9
2020-11-02T04:01:00+09:00,0.6,��쐼,1.4,��,13.4,97.6,0,0,0,0,0,0,1005.9,1019.9
2020-11-02T04:02:00+09:00,0.7,��쐼,1.4,��,13.4,97.6,0,0,0,0,0,0,1005.9,1019.9
2020-11-02T04:03:00+09:00,0.6,��쐼,1.4,��,13.6,97.7,0,0,0,0,0,0,1005.9,1019.9
2020-11-02T04:04:00+09:00,0.6,��,1.4,��,13.5,97.8,0,0,0,0,0,0,1005.8,1019.8
2020-11-02T04:05:00+09:00,0.6,��,1.4,��,13.5,97.7,0,0,0,0,0,0,1005.9,1019.9
2020-11-02T04:06:00+09:00,0.6,��,1.4,��,13.5,97.7,0,0,0,0,0,0,1005.9,1019.9
2020-11-02T04:07:00+09:00,0.6,��,1.4,��,13.5,97.7,0,0,0,0,0,0,1005.9,1019.9
2020-11-02T04:08:00+09:00,0.5,��,1.3,��쐼,13.5,97.7,0,0,0,0,0,0,1005.9,1019.9
2020-11-02T04:09:00+09:00,0.5,��쐼,1.3,��쐼,13.6,97.8,0,0,0,0,0,0,1005.9,1019.9
2020-11-02T04:10:00+09:00,0.4,��,1.1,��쐼,13.5,97.8,0,0,0,0,0,0,1005.9,1019.9
2020-11-02T04:11:00+09:00,0.4,��,1.1,��쐼,13.5,97.8,0,0,0,0,0,0,1005.9,1019.9
2020-11-02T04:12:00+09:00,0.4,��쐼,1.1,��쐼,13.5,97.8,0,0,0,0,0,0,1005.9,1019.9
2020-11-02T04:13:00+09:00,0.3,��쐼,1.1,��쐼,13.5,97.8,0,0,0,0,0,0,1005.9,1019.9
2020-11-02T04:14:00+09:00,0.3,��쐼,1.1,��쐼,13.5,97.8,0,0,0,0,0,0,1005.9,1019.9
2020-11-02T04:15:00+09:00,0.3,��쐼,0.9,��쐼,13.6,97.8,0,0,0,0,0,0,1005.9,1019.9
2020-11-02T04:16:00+09:00,0.3,��쐼,0.9,��쐼,13.7,97.9,0,0,0,0,0,0,1005.9,1019.9
2020-11-02T04:17:00+09:00,0.3,��쐼,0.9,��쐼,13.6,97.9,0,0,0,0,0,0,1005.9,1019.9
2020-11-02T04:18:00+09:00,0.2,�É�,0.9,��쐼,13.8,97.9,0,0,0,0,0,0,1005.8,1019.8
2020-11-02T04:19:00+09:00,0.2,�É�,0.9,��쐼,13.8,97.9,0,0,0,0,0,0,1005.8,1019.8
2020-11-02T04:20:00+09:00,0.2,�É�,0.9,��쐼,13.6,97.8,0,0,0,0,0,0,1005.8,1019.8
2020-11-02T04:21:00+09:00,0.1,�É�,0.9,��쐼,13.6,97.8,0,0,0,0,0,0,1005.8,1019.8
2020-11-02T04:22:00+09:00,0.1,�É�,0.9,��쐼,13.7,97.8,0,0,0,0,0,0,1005.8,1019.8
2020-11-02T04:23:00+09:00,0.2,�É�,0.9,��쐼,13.6,97.8,0,0,0,0,0,0,1005.9,1019.9
2020-11-02T04:24:00+09:00,0.2,�É�,0.9,��쐼,13.6,97.8,0,0,0,0,0,0,1005.8,1019.8
2020-11-02T04:25:00+09:00,0.2,�É�,0.8,���쐼,13.7,97.9,0,0,0,0,0,0,1005.8,1019.8
2020-11-02T04:26:00+09:00,0.2,�É�,0.8,���쐼,13.6,97.8,0,0,0,0,0,0,1005.9,1019.9
2020-11-02T04:27:00+09:00,0.2,�É�,0.8,���쐼,13.5,97.8,0,0,0,0,0,0,1005.8,1019.8
2020-11-02T04:28:00+09:00,0.3,�쐼,1.2,���쐼,13.6,97.8,0,0,0,0,0,0,1005.9,1019.9
2020-11-02T04:29:00+09:00,0.3,�쐼,1.2,���쐼,13.5,97.8,0,0,0,0,0,0,1005.9,1019.9
2020-11-02T04:30:00+09:00,0.4,�쐼,1.2,���쐼,13.6,97.8,0,0,0,0,0,0,1005.9,1019.9
2020-11-02T04:31:00+09:00,0.4,�쐼,1.2,���쐼,13.6,97.9,0,0,0,0,0,0,1005.9,1019.9
2020-11-02T04:32:00+09:00,0.5,�쐼,1.2,���쐼,13.6,97.8,0,0,0,0,0,0,1005.9,1019.9
2020-11-02T04:33:00+09:00,0.5,���쐼,1.2,���쐼,13.7,97.9,0,0,0,0,0,0,1005.9,1019.9
2020-11-02T04:34:00+09:00,0.4,�쐼,1.2,���쐼,13.6,97.8,0,0,0,0,0,0,1005.9,1019.9
2020-11-02T04:35:00+09:00,0.4,�쐼,1.2,���쐼,13.7,97.9,0,0,0,0,0,0,1005.9,1019.9
2020-11-02T04:36:00+09:00,0.5,���쐼,1.2,���쐼,13.8,97.9,0,0,0,0,0,0,1005.9,1019.9
2020-11-02T04:37:00+09:00,0.5,���쐼,1.2,���쐼,13.7,97.9,0,0,0,0,0,0,1005.9,1019.9
2020-11-02T04:38:00+09:00,0.5,���쐼,1.2,���쐼,13.7,97.9,0,0,0,0,0,0,1005.8,1019.8
2020-11-02T04:39:00+09:00,0.5,��,1.1,�쐼,13.7,97.8,0,0,0,0,0,0,1005.8,1019.8
2020-11-02T04:40:00+09:00,0.5,��,1.4,���k��,13.7,97.8,0,0,0,0,0,0,1005.8,1019.8
2020-11-02T04:41:00+09:00,0.6,��,1.5,��,13.7,97.8,0,0,0,0,0,0,1005.8,1019.8
2020-11-02T04:42:00+09:00,0.7,��,1.6,��,13.8,97.9,0,0,0,0,0,0,1005.8,1019.8
2020-11-02T04:43:00+09:00,0.8,��,1.6,��,13.7,97.9,0,0,0,0,0,0,1005.9,1019.9
2020-11-02T04:44:00+09:00,0.9,���k��,1.8,��,13.7,97.8,0,0,0,0,0,0,1005.9,1019.9
2020-11-02T04:45:00+09:00,1.1,���k��,2.1,��,13.6,97.8,0,0,0,0,0,0,1005.9,1019.9
2020-11-02T04:46:00+09:00,1.2,��,2.4,���쐼,13.6,97.8,0,0,0,0,0,0,1005.9,1019.9
2020-11-02T04:47:00+09:00,1.3,��,2.4,���쐼,13.6,97.8,0,0,0,0,0,0,1005.9,1019.9
2020-11-02T04:48:00+09:00,1.4,��,2.4,���쐼,13.6,97.8,0,0,0,0,0,0,1006,1020
2020-11-02T04:49:00+09:00,1.5,��,2.4,���쐼,13.6,97.8,0,0,0,0,0,0,1006,1020
2020-11-02T04:50:00+09:00,1.5,��,2.4,���쐼,13.7,97.8,0,0,0,0,0,0,1005.9,1019.9
2020-11-02T04:51:00+09:00,1.4,��,2.4,���쐼,13.8,97.9,0,0,0,0,0,0,1005.9,1019.9
2020-11-02T04:52:00+09:00,1.4,���쐼,2.4,���쐼,13.8,97.9,0,0,0,0,0,0,1005.9,1019.9
2020-11-02T04:53:00+09:00,1.3,���쐼,2.4,���쐼,13.8,97.9,0,0,0,0,0,0,1005.9,1019.9
2020-11-02T04:54:00+09:00,1.2,���쐼,2.4,���쐼,13.8,97.9,0,0,0,0,0,0,1006,1020
2020-11-02T04:55:00+09:00,1.1,���쐼,2.4,���쐼,13.9,97.9,0,0,0,0,0,0,1006,1020
2020-11-02T04:56:00+09:00,1,���쐼,1.9,��,13.9,97.9,0,0,0,0,0,0,1006,1020
2020-11-02T04:57:00+09:00,0.9,���쐼,1.8,�쐼,13.9,97.9,0,0,0,0,0,0,1006.1,1020.1
2020-11-02T04:58:00+09:00,0.8,���쐼,1.7,���쐼,13.9,97.9,0,0,0,0,0,0,1006.1,1020.1
2020-11-02T04:59:00+09:00,0.9,���쐼,2.1,���k��,14,97.9,0,0,0,0,0,0,1006.1,1020.1
2020-11-02T05:00:00+09:00,0.8,���쐼,2.1,���k��,14,97.9,0,0,0,0,0,0,1006.1,1020.1
2020-11-02T05:01:00+09:00,0.7,��,2.1,���k��,14,97.9,0,0,0,0,0,0,1006.1,1020.1
2020-11-02T05:02:00+09:00,0.7,��,2.1,���k��,13.9,97.9,0,0,0,0,0,0,1006.1,1020.1
2020-11-02T05:03:00+09:00,0.6,��,2.1,���k��,14,97.8,0,0,0,0,0,0,1006.1,1020.1
2020-11-02T05:04:00+09:00,0.6,��,2.1,���k��,14,97.9,0,0,0,0,0,0,1006.1,1020.1
2020-11-02T05:05:00+09:00,0.6,��,2.1,���k��,14,97.9,0,0,0,0,0,0,1006.1,1020.1
2020-11-02T05:06:00+09:00,0.4,��,2.1,���k��,13.9,97.8,0,0,0,0,0,0,1006.1,1020.1
2020-11-02T05:07:00+09:00,0.4,���k��,2.1,���k��,13.9,97.8,0,0,0,0,0,0,1006.1,1020.1
2020-11-02T05:08:00+09:00,0.4,���k��,2.1,���k��,13.9,97.8,0,0,0,0,0,0,1006.1,1020.1